CW3821 Weather Reports


time (UTC)temp
C
wind
direction
speed
KPH
gust
KPH
rain 1hr
cm
rain 24hr
cm
rain mn
cm
humidity
%
barometer
mb
20260505121548 3 13 4.8 0.0 0.00 0.00 0.08 100 1007.7
20260505120033 3 312 6.4 0.0 0.00 0.00 0.08 100 1006.6
20260505114554 4 0 6.4 0.0 0.00 0.00 0.08 100 1006.4
20260505113020 3 16 11.3 0.0 0.00 0.00 0.05 100 1006.3
20260505111543 4 3 9.7 0.0 0.00 0.00 0.03 100 1005.7
20260505101532 6 16 9.7 0.0 0.00 0.00 0.00 100 1003.5
20260505100050 6 308 11.3 0.0 0.00 0.00 0.00 100 1003.4
20260505094510 6 0 9.7 0.0 0.00 0.00 0.00 100 1003.2
20260505093040 6 344 9.7 0.0 0.00 0.00 0.00 100 1003.2
20260505091505 6 304 9.7 0.0 0.00 0.00 0.00 100 1002.6
20260505090031 7 0 11.3 0.0 0.00 0.00 0.00 100 1001.3
20260505084509 8 0 4.8 0.0 0.00 0.00 0.00 100 1000.3
20260505083035 10 14 0.0 0.0 0.00 0.00 0.00 100 1000.4
20260505081603 10 347 1.6 0.0 0.00 0.00 0.00 100 1000.4
20260505081505 10 343 1.6 0.0 0.00 0.00 0.00 100 1000.4
20260505080031 10 189 0.0 0.0 0.00 0.00 0.00 100 1001.1
20260505074509 10 189 0.0 0.0 0.00 0.00 0.00 100 1001.1
20260505073034 10 189 0.0 0.0 0.00 0.00 0.00 100 1001.2
20260505071557 10 189 0.0 0.0 0.00 0.00 0.00 100 1001.3
20260505070011 10 189 0.0 0.0 0.00 0.00 0.00 100 1001.5
20260505064535 10 189 0.0 0.0 0.00 0.00 0.00 100 1001.8
20260505063133 10 189 0.0 0.0 0.00 0.00 0.00 100 1001.8
20260505063002 10 189 0.0 0.0 0.00 0.00 0.00 100 1001.8
20260505061526 9 189 0.0 0.0 0.00 0.00 0.00 100 1001.9
20260505060044 9 185 0.0 0.0 0.00 0.00 0.00 100 1000.1
20260505054610 10 185 0.0 0.0 0.00 0.00 0.20 100 1000.2
20260505054504 10 185 0.0 0.0 0.00 0.00 0.20 100 1000.2
20260505053023 9 185 1.6 0.0 0.00 0.00 0.20 100 1000.2
20260505051610 9 196 0.0 0.0 0.00 0.00 0.20 100 1000.0
20260505041556 10 241 1.6 0.0 0.00 0.00 0.20 100 1001.2
20260505040018 9 292 1.6 0.0 0.00 0.00 0.18 100 1001.7
20260505034530 8 292 11.3 0.0 0.00 0.00 0.15 100 1002.1
20260505033012 9 302 14.5 0.0 0.00 0.00 0.10 100 1001.9
20260505031550 10 313 14.5 0.0 0.00 0.00 0.05 82 1001.8
20260505030016 11 318 11.3 0.0 0.00 0.00 0.00 64 1001.3
20260505024555 12 288 4.8 0.0 0.00 0.00 0.00 61 1000.7
20260505023019 12 0 4.8 0.0 0.00 0.00 0.00 59 1000.0
20260505021551 13 332 3.2 0.0 0.00 0.00 0.00 53 999.4
20260505020014 14 229 0.0 0.0 0.00 0.00 0.00 54 1000.9
20260505014532 14 229 0.0 0.0 0.00 0.00 0.00 52 1000.2
20260505013104 14 136 0.0 0.0 0.00 0.00 0.00 52 1000.5
20260505011517 13 47 0.0 0.0 0.00 0.00 0.00 54 1000.5
20260505010109 13 92 0.0 0.0 0.00 0.00 0.00 56 1001.5
20260505004522 13 193 4.8 0.0 0.00 0.00 0.00 59 1001.6
20260505003056 15 181 4.8 0.0 0.00 0.00 0.00 48 1001.4
20260505001524 15 318 6.4 0.0 0.00 0.00 0.00 40 1000.7
20260505000016 16 284 8.0 0.0 0.00 0.00 0.00 38 1000.7
20260504234554 16 282 4.8 0.0 0.00 0.00 0.00 35 1000.0
20260504233010 16 309 11.3 0.0 0.00 0.00 0.00 35 999.8
20260504231529 16 329 8.0 0.0 0.00 0.00 0.00 33 999.7
20260504230056 16 343 9.7 0.0 0.00 0.00 0.00 33 999.4
20260504224514 17 343 9.7 0.0 0.00 0.00 0.00 30 999.4
20260504223042 16 288 11.3 0.0 0.00 0.00 0.00 32 999.6
20260504221512 17 339 12.9 0.0 0.00 0.00 0.00 28 999.7
20260504220039 17 349 11.3 0.0 0.00 0.00 0.00 30 998.7
20260504214558 18 17 11.3 0.0 0.00 0.00 0.00 26 997.7
20260504213028 20 56 8.0 0.0 0.00 0.00 0.00 20 996.8
20260504211558 21 17 8.0 0.0 0.00 0.00 0.00 19 996.5
20260504211502 21 59 8.0 0.0 0.00 0.00 0.00 20 996.5
20260504210031 20 346 4.8 0.0 0.00 0.00 0.00 22 997.2
20260504204605 18 48 8.0 0.0 0.00 0.00 0.00 26 998.2
20260504203025 18 319 8.0 0.0 0.00 0.00 0.00 28 998.7
20260504201538 18 223 6.4 0.0 0.00 0.00 0.00 28 998.8
20260504200020 17 14 8.0 0.0 0.00 0.00 0.00 33 997.9
20260504194544 16 10 9.7 0.0 0.00 0.00 0.00 29 998.4
20260504193024 16 336 1.6 0.0 0.00 0.00 0.00 34 999.3
20260504191544 15 220 6.4 0.0 0.00 0.00 0.00 37 999.4
20260504190007 16 260 16.1 0.0 0.00 0.00 0.00 28 998.4
20260504184540 18 161 12.9 0.0 0.00 0.00 0.00 22 997.0
20260504183057 20 352 8.0 0.0 0.00 0.00 0.00 17 996.1
20260504181530 21 13 9.7 0.0 0.00 0.00 0.00 17 996.0
20260504180016 21 38 9.7 0.0 0.00 0.00 0.00 18 994.9
20260504174532 21 335 4.8 0.0 0.00 0.00 0.00 17 995.2
20260504173059 21 332 6.4 0.0 0.00 0.00 0.00 17 995.6
20260504171525 21 357 6.4 0.0 0.00 0.00 0.00 18 995.6